Preview of NWS' New Version of Forecast
This preview is not operational and should not be used for support decisions.

Regional Weather Roundup (RWR)

Issued by National Weather Service (NWS)

                            
000
ASUS43 KLSX 200857
RWRMO 

WEATHER SUMMARY FOR MISSOURI
NATIONAL WEATHER SERVICE SPRINGFIELD MO
400 AM CDT THU JUN 20 2019

NOTE: "FAIR" INDICATES FEW OR NO CLOUDS BELOW 12,000 FEET WITH NO
       SIGNIFICANT WEATHER AND/OR OBSTRUCTIONS TO VISIBILITY.
       CURRENT SKY AND/OR WEATHER CONDITIONS ARE NOT AVAILABLE FOR
       CHILLICOTHE AND FARMINGTON.

MOZ001>031-035>038-043-044-053-054-201000-
...NORTHERN AND WESTERN MISSOURI...
  
CITY           SKY/WX    TMP DP  RH WIND       PRES   REMARKS
KANSAS CTY INT CLEAR     61  60  97 SE5       29.74R                  
LEE'S SUMMIT   CLEAR     63  60  90 CALM      29.74S                  
ST JOSEPH      CLEAR     63  61  93 SE5       29.73R                  
CHILLICOTHE      N/A     63  62  97 CALM      29.75R                  
     
$$
MOZ066>068-077>081-088>096-101>105-201000-
...SOUTHWEST MISSOURI...
  
CITY           SKY/WX    TMP DP  RH WIND       PRES   REMARKS
SPRINGFIELD    CLEAR     65  62  90 CALM      29.73S                  
JOPLIN         CLEAR     63  62  97 SE3       29.74S FOG              
               
$$
MOZ032>034-039>042-045>050-055>058-069>072-201000-
...CENTRAL MISSOURI...  
  
CITY           SKY/WX    TMP DP  RH WIND       PRES   REMARKS
COLUMBIA       NOT AVBL                                               
ROLLA          CLOUDY    65  61  87 N5        29.72S                  
SEDALIA        CLEAR     60  60 100 W5        29.73F FOG              
WARRENSBURG    FOG       59  59 100 W3        29.73S VSB 3/4          
               
$$
MOZ051-052-059>065-201000-
...EAST CENTRAL MISSOURI...
  
CITY           SKY/WX    TMP DP  RH WIND       PRES   REMARKS
ST LOUIS INTL  CLOUDY    68  61  78 NW6       29.67R                  
                   
$$
MOZ072>076-082>087-097>100-106>115-201000-
...SOUTH CENTRAL AND SOUTHEAST MISSOURI...
  
CITY           SKY/WX    TMP DP  RH WIND       PRES   REMARKS
CAPE GIRARDEAU FAIR      71  67  87 W9        29.66R                  
POPLAR BLUFF   CLOUDY    71  70  96 CALM      29.68R                  
WEST PLAINS    CLEAR     66  65  96 CALM      29.75R                  
                                       
$$